Weather History for KMFR - September, 2013

Change the Weather History Date:

Tuesday, September 24, 2013

  Actual Average Record
Temperature  
Mean Temperature 55 °F 64 °F  
Max Temperature 61 °F 81 °F 99 °F (1991)
Min Temperature 49 °F 48 °F 33 °F (1929)
Degree Days  
Heating Degree Days 10 3  
Month to date heating degree days 35 38  
Since 1 July heating degree days 35 48  
Cooling Degree Days 0 2  
Month to date cooling degree days 142 101  
Year to date cooling degree days 1057 808  
Growing Degree Days 6 (Base 50)    
Moisture  
Dew Point 48 °F    
Average Humidity 74    
Maximum Humidity 86    
Minimum Humidity 62    
Precipitation  
Precipitation 0.28 in 0.02 in 2.02 in (2014)
Month to date precipitation 1.47 0.43  
Year to date precipitation 6.02 10.57  
Snow  
Snow 0.00 in 0.00 in - ()
Month to date snowfall 0.0 0.0  
Since 1 July snowfall 0.0 0.0  
Snow Depth 0.00 in    
Sea Level Pressure  
Sea Level Pressure 29.96 in    
Wind  
Wind Speed 4 mph (NW)    
Max Wind Speed 17 mph    
Max Gust Speed 24 mph    
Visibility 9 miles    
Events Rain    
T = Trace of Precipitation, MM = Missing Value Source: NWS Daily Summary

Daily Weather History Graph

Daily Weather History Graph

Search for Another Location

Airport or City:

Trip Planner

Search our weather history database for the weather conditions in past years. The results will help you decide how hot, cold, wet, or windy it might be!

Date:

Astronomy

Sep. 24, 2013 Rise Set
Actual Time 7:01 AM PDT 7:04 PM PDT
Civil Twilight 6:33 AM PDT 7:32 PM PDT
Nautical Twilight 6:00 AM PDT 8:05 PM PDT
Astronomical Twilight 5:27 AM PDT 8:38 PM PDT
Moon 10:20 PM PDT (9/24) 12:26 PM PDT (9/24)
Length of Visible Light 12h 59m
Length of Day
12h 03m
Waning Gibbous, 72% of the Moon is Illuminated
Sep 24
Waning Gibbous
Sep 26
Last Quarter
Oct 4
New
Oct 11
First Quarter
Oct 18
Full

Hourly Weather History & Observations

Time (PDT) Temp. Dew Point Humidity Pressure Visibility Wind Dir Wind Speed Gust Speed Precip Events Conditions
12:53 AM 60.1 °F 48.9 °F 67% 29.99 in 10.0 mi Calm Calm - N/A   Overcast
1:53 AM 59.0 °F 48.9 °F 69% 29.97 in 10.0 mi WNW 4.6 mph - N/A   Overcast
2:53 AM 57.9 °F 48.9 °F 72% 29.97 in 10.0 mi NW 4.6 mph - 0.00 in Rain Light Rain
3:53 AM 57.9 °F 48.9 °F 72% 29.96 in 10.0 mi NNW 4.6 mph - 0.00 in   Overcast
4:53 AM 57.0 °F 48.9 °F 74% 29.95 in 10.0 mi WNW 3.5 mph - N/A   Overcast
5:53 AM 57.0 °F 48.9 °F 74% 29.96 in 10.0 mi Calm Calm - N/A   Overcast
6:53 AM 55.9 °F 48.9 °F 77% 29.96 in 10.0 mi NW 5.8 mph - 0.00 in   Overcast
7:34 AM 53.6 °F 50.0 °F 88% 29.99 in 3.0 mi WNW 8.1 mph - 0.01 in Rain Rain
7:39 AM 53.6 °F 50.0 °F 88% 29.99 in 1.8 mi WNW 10.4 mph - 0.03 in Rain Heavy Rain
7:53 AM 53.1 °F 51.1 °F 93% 29.99 in 1.8 mi WNW 6.9 mph - 0.08 in Rain Rain
7:58 AM 53.6 °F 50.0 °F 88% 29.99 in 3.0 mi WNW 6.9 mph - 0.00 in Rain Light Rain
8:53 AM 53.1 °F 48.0 °F 83% 30.01 in 9.0 mi East 3.5 mph - 0.12 in Rain Light Rain
9:53 AM 55.0 °F 48.9 °F 80% 30.01 in 10.0 mi East 4.6 mph - 0.00 in   Overcast
10:53 AM 57.0 °F 46.9 °F 69% 30.01 in 10.0 mi Calm Calm - N/A   Overcast
11:53 AM 55.9 °F 48.0 °F 75% 30.01 in 10.0 mi Calm Calm - 0.00 in   Overcast
12:53 PM 59.0 °F 46.9 °F 64% 29.99 in 10.0 mi Calm Calm - N/A   Mostly Cloudy
1:53 PM 61.0 °F 48.0 °F 62% 29.96 in 10.0 mi NE 8.1 mph - N/A   Overcast
2:53 PM 57.9 °F 50.0 °F 75% 29.96 in 10.0 mi North 8.1 mph - 0.02 in Rain Light Rain
3:53 PM 57.0 °F 50.0 °F 77% 29.94 in 10.0 mi North 8.1 mph - 0.00 in   Overcast
4:53 PM 57.9 °F 50.0 °F 75% 29.93 in 10.0 mi North 8.1 mph - N/A   Overcast
5:53 PM 59.0 °F 48.0 °F 67% 29.92 in 10.0 mi West 4.6 mph - 0.00 in   Mostly Cloudy
6:53 PM 57.0 °F 46.9 °F 69% 29.91 in 10.0 mi Calm Calm - N/A   Overcast
7:53 PM 55.0 °F 46.9 °F 74% 29.92 in 10.0 mi WSW 3.5 mph - 0.00 in Rain Light Rain
8:53 PM 53.1 °F 46.9 °F 80% 29.94 in 10.0 mi WNW 4.6 mph - 0.00 in   Overcast
9:53 PM 52.0 °F 46.9 °F 83% 29.94 in 10.0 mi Calm Calm - 0.01 in   Overcast
10:53 PM 52.0 °F 46.9 °F 83% 29.92 in 10.0 mi Calm Calm - N/A   Mostly Cloudy
11:53 PM 48.9 °F 44.1 °F 83% 29.93 in 10.0 mi NNW 3.5 mph - 0.05 in   Scattered Clouds